Skip Page Navigation
NASA JPL Caltech
NASA Logo - Jet Propulsion Laboratory + View the NASA Portal
+ Center for Near-Earth Object Studies
JPL Home Earth Solar System Stars & Galaxies Technology
JPL Solar System Dynamics
BODIES ORBITS EPHEMERIDES TOOLS PHYSICAL DATA DISCOVERY FAQ SITE MAP
JPL Small-Body Database Browser
Search: [ help ]  
(2011 RC17)
Classification: Centaur          SPK-ID: 3588417
Ephemeris | Orbit Diagram | Orbital Elements | Mission Design | Physical Parameters | Close-Approach Data ]

[ show orbit diagram ]
Orbital Elements at Epoch 2459200.5 (2020-Dec-17.0) TDB
Reference: JPL 6 (heliocentric ecliptic J2000)
 Element Value Uncertainty (1-sigma)   Units 
e .5361403686534593 2.8969e-06  
a 6.280895336440451 3.7673e-05 au
q 2.913453795287475 8.6386e-07 au
i 11.34244339838466 1.2539e-05 deg
node 212.8534009581437 4.9236e-05 deg
peri 193.3143220733232 5.6176e-05 deg
M 210.260726484084 0.0019224 deg
tp 2461591.964743204172
(2027-Jul-05.46474320)
0.052219 TDB
period 5749.509045547712
15.74
0.051729
0.0001416
d
yr
n .06261404185089085 5.6335e-07 deg/d
Q 9.648336877593428 5.7872e-05 au
  Orbit Determination Parameters
   # obs. used (total)      89  
   data-arc span      938 days (2.57 yr)  
   first obs. used      2010-08-05  
   last obs. used      2013-02-28  
   planetary ephem.      DE441  
   SB-pert. ephem.      SB441-N16  
   condition code      3  
   norm. resid. RMS      .61917  
   source      ORB  
   producer      Otto Matic  
   solution date      2021-Apr-15 05:17:52  

Additional Information
 Earth MOID = 1.92354 au 
 Jupiter MOID = 1.00286 au 
 T_jup = 2.647 
[ show covariance matrix ]

Ephemeris | Orbit Diagram | Orbital Elements | Mission Design | Physical Parameters | Close-Approach Data ]

Physical Parameter Table
Parameter Symbol Value Units Sigma Reference Notes
absolute magnitude H 15.8   n/a MPO451294  

[ show close-approach data ]
Ephemeris | Orbit Diagram | Orbital Elements | Mission Design | Physical Parameters | Close-Approach Data ]
ABOUT SSD CREDITS/AWARDS PRIVACY/COPYRIGHT GLOSSARY LINKS
FirstGov 2021-May-17 22:24 UT
(server date/time)  
NASA Home Page
Site Manager:   Ryan S. Park
Webmaster  Alan B. Chamberlin